www.pogodaiklimat.ru

Погода и климат >> Архив погоды >> Аргентина >> Маркос Хуарес


ПОГОДА в Маркос Хуарес

  • Прогноз погоды в Маркос Хуарес
  • Монитор погоды в Маркос Хуарес

АРХИВ ПОГОДЫ в Маркос Хуарес

Время (UTC), дата Ветер
(напр.,м/с)
 
Видим.   Явления Облачность Т
(С)
Тd
(С)
f
(%)
Тe
(С)
Тes
(С)
Комфортность P
(гПа)
Po
(гПа)
Тmin
(С)
Tmax
(С)
R
(мм)
R24
(мм)
S
(см)
09 16.02 ЮВ 1 10 км дымка ясно +14.8 +14.5 98 +15 +15 1013.6 1000.2
12 16.02 В 4 20 км ясно +21.1 +18.4 85 +25 +29 комфорт 1015.1 1001.8 +13.7 +21.1
15 16.02 СВ 3 20 км ясно +26.8 +18.4 60 +32 +46 очень
душно
1014.5 1001.3
18 16.02 СВ 3 20 км 4/4 750 м
[Cu hum]
+29.3 +18.6 53 +34 +43 очень
душно
1012.3 999.0
21 16.02 В 3 20 км 1/1 750 м
[Cu hum]
+28.6 +19.7 59 +35 +37 очень
душно
1010.9 997.7
00 17.02 В 3 20 км ясно +21.8 +19.0 84 +27 +27 душно 1011.7 998.4 +21.1 +30.0
03 17.02 В 3 20 км ясно +17.9 +16.6 92 +18 +18 1012.5 999.3
06 17.02 В 3 20 км ясно +16.8 +16.1 96 +17 +17 1011.1 997.8
09 17.02 СВ 2 10 км дымка ясно +15.9 +15.7 99 +16 +16 1010.9 997.7
12 17.02 СВ 3 20 км ясно +23.0 +20.6 86 +30 +35 очень
душно
1011.7 998.5 +15.6 +23.0
15 17.02 СВ 4 20 км 5/5 900 м
[Cu Sc]
+29.6 +22.2 64 +38 +44 очень
душно
1010.8 997.7
18 17.02 С 5 20 км 5/5 900 м
[Cu Sc]
+31.9 +22.0 56 +41 +45 опасность
перегрева
1008.7 995.6
21 17.02 С 4 20 км 4/4 900 м
[Cu med, cong]
+30.8 +22.2 60 +40 +41 очень
душно
1007.1 994.0
00 18.02 СВ 4 20 км ясно +22.2 +20.4 90 +29 +29 очень
душно
1007.4 994.2 +22.2 +31.9
03 18.02 СВ 3 20 км ясно +20.1 +18.8 92 +24 +24 комфорт 1008.0 994.9
06 18.02 СВ 2 20 км ясно +18.5 +18.0 97 +20 +20 1007.1 994.1
09 18.02 СВ 2 200 м туман ясно +17.6 +17.6 100 +18 +18 1006.3 993.2
12 18.02 СВ 2 20 км {туман} ясно +23.8 +21.7 88 +30 +36 очень
душно
1007.4 994.2 +14.5 +23.8
15 18.02 СВ 5 20 км 3/3 900 м
[Cu hum]
+30.4 +21.9 60 +39 +46 очень
душно
1007.3 994.2
18 18.02 СВ 4 20 км 3/3 900 м
[Cu hum]
+32.4 +21.6 53 +41 +48 опасность
перегрева
1005.0 992.0
21 18.02 СВ 4 20 км 1/1 900 м
[Cu hum]
+32.4 +21.6 53 +41 +42 опасность
перегрева
1003.6 990.6
00 19.02 СВ 2 20 км ясно +24.5 +21.7 84 +31 +31 очень
душно
1004.4 991.4 +23.8 +33.5
03 19.02 С 2 20 км ясно +21.2 +20.0 93 +26 +26 душно 1005.7 992.6
06 19.02 С 2 20 км ясно +20.0 +19.1 95 +24 +24 комфорт 1005.2 992.2
09 19.02 С 1 20 км ясно +18.7 +17.7 94 +21 +21 комфорт 1005.0 992.0
12 19.02 С 1 20 км 6/0
[Ac As Cs]
+24.5 +21.8 85 +31 +37 очень
душно
1006.7 993.6 +17.0 +24.5
15 19.02 СЗ 3 20 км 4/4 900 м
[Cu hum]
+32.4 +22.0 54 +41 +51 опасность
перегрева
1006.2 993.3
18 19.02 С 2 20 км 5/5 900 м
[Cu hum]
+35.1 +22.8 49 +45 +53 опасность
перегрева
1004.7 991.8
21 19.02 С 3 20 км 4/1 900 м
[Cu hum Cs]
+33.7 +23.5 55 +44 +46 опасность
перегрева
1002.9 990.0
00 20.02 С 2 20 км 5/0
[Cs]
+25.5 +22.6 84 +34 +34 очень
душно
1004.2 991.2 +24.5 +35.1
03 20.02 С 2 20 км ясно +22.6 +21.1 91 +30 +30 очень
душно
1005.5 992.6
06 20.02 С 3 20 км ясно +20.9 +20.0 95 +26 +26 душно 1005.8 992.9
09 20.02 С 2 20 км ясно +20.6 +19.2 92 +26 +26 душно 1005.8 992.9
12 20.02 С 3 20 км 3/0
[Ci]
+26.0 +23.1 84 +35 +39 очень
душно
1006.6 993.6 +20.0 +26.0
15 20.02 С 3 20 км ясно +33.0 +23.3 57 +44 +58 опасность
перегрева
1006.0 993.0
18 20.02 СВ 7 20 км ясно +35.4 +23.2 49 +45 +50 опасность
перегрева
1004.1 991.2
21 20.02 С 5 20 км ясно +34.2 +24.1 56 +46 +48 опасность
перегрева
1002.5 989.6
00 21.02 СВ 2 20 км ясно +25.2 +22.1 83 +33 +33 очень
душно
1003.1 990.1 +25.2 +35.6
03 21.02 СВ 3 20 км ясно +23.0 +21.2 90 +31 +31 очень
душно
1004.0 991.0
06 21.02 Ю 1 20 км ясно +21.3 +19.6 90 +26 +26 душно 1006.0 993.0
09 21.02 СВ 3 20 км ясно +19.6 +18.7 95 +23 +23 комфорт 1005.5 992.6
12 21.02 С 6 20 км 4/0
[Ac As Cs]
+25.9 +23.0 84 +35 +37 очень
душно
1007.3 994.2 +18.6 +25.9
15 21.02 С 7 20 км 4/1 900 м
[Cu hum Cs]
+32.8 +24.2 61 +45 +50 опасность
перегрева
1007.4 994.5
18 21.02 С 5 20 км 4/4 900 м
[Cu hum]
+35.1 +24.0 53 +47 +52 опасность
перегрева
1005.4 992.5
21 21.02 С 4 20 км 4/4 900 м
[Cu hum]
+35.7 +25.0 54 +49 +50 опасность
перегрева
1004.4 991.4
00 22.02 СВ 4 20 км 8/1 900 м
[Sc Ac As Cs]
+26.8 +23.6 83 +37 +37 очень
душно
1004.4 991.4 +25.9 +35.7
03 22.02 СВ 2 20 км 4/0
[Cs]
+24.6 +22.2 87 +32 +32 очень
душно
1005.8 992.9
06 22.02 СВ 1 20 км ясно +24.6 +22.2 87 +32 +32 очень
душно
1005.4 992.6
09 22.02 СВ 5 20 км 1/0
[Cs]
+23.6 +21.8 90 +30 +30 очень
душно
1004.4 991.6
12 22.02 С 4 20 км 5/0
[Ci]
+27.7 +23.2 77 +37 +41 очень
душно
1006.2 993.3 +20.3 +27.7
15 22.02 С 5 20 км 6/4 900 м
[Sc Ac As]
+34.2 +24.4 57 +47 +51 опасность
перегрева
1006.2 993.4
18 22.02 С 4 20 км 4/4 900 м
[Cu hum]
+36.8 +25.4 52 +51 +57 опасность
перегрева
1003.9 991.0
21 22.02 СЗ 2 20 км 6/4 1000 м
[Cu med, cong Ac As Cs]
+37.0 +25.6 52 +51 +53 опасность
перегрева
1003.0 990.2
00 23.02 З 1 20 км гроза без осадков 8/3 750 м
[Cb cap Ac As Cs]
+29.8 +25.6 78 +44 +44 опасность
перегрева
1004.0 991.2 +27.7 +37.0
03 23.02 ЮВ 6 20 км зарница {гроза} 6/5 750 м
[Cb cap Cs]
+25.9 +23.7 88 +35 +35 очень
душно
1005.6 992.8
06 23.02 Ю 6 10 км гроза, ливневой дождь 10/9 600 м
[Cb cap As op]
+24.0 +23.6 98 +33 +33 очень
душно
1004.5 991.7 4

 

Местоположение метеостанции Маркос Хуарес (Аргентина): широта -32.70 долгота -62.15 высота над уровнем моря 114 м.

В архиве по умолчанию представлена погода в Маркос Хуарес за последнюю неделю. Архивные данные за месяц целиком и за предыдущие месяцы, начиная с января 2011 года, Вы можете получить, выбрав интересующий диапазон дат из раскрывающегося списка и нажав кнопку "Ввод!".


*Определитесь, кто Вы:
робот инопланетянин человек

Внимание! Время в таблицах - всемирное. Для получения местного времени необходимо прибавить поправку, которая равна -3 ч.

Смотрите также архив погоды в соседних городах и на ближайших метеорологических станциях:

Погода в Росарио (Аргентина) (130 км)
Погода в Санта-Фе (Аргентина) (168 км)
Погода в Паране (Аргентина) (187 км)
Погода в Лабоулайе (Аргентина) (195 км)
Погода в Пиларе (Аргентина) (200 км)
Погода в Рио-Куарто (Аргентина) (203 км)
Погода в Хунине (Аргентина) (236 км)
Погода в Кордове (Аргентина) (248 км)
Погода в Вилла Долорес (Аргентина) (292 км)
Погода в Сересе (Аргентина) (314 км)

Пояснения к столбцам:

Ветер - указаны скорость ветра в м/с - средняя за 10 мин, порывы в срок и между сроками (в фигурных скобках) и направление, откуда дует ветер: С - северный, СВ - северо-восточный, В - восточный, ЮВ - юго-восточный, Ю - южный, ЮЗ - юго-западный, З - западный, СЗ - северо-западный.
Видимость - горизонтальная дальность видимости в метрах или километрах. При видимости от 1 до 10 км при отсутствии осадков обычно наблюдается дымка, при ухудшении видимости до 1 км и менее - туман. В сухую погоду видимость может ухудшаться дымом, пылью или мглою.
Явления - указаны атмосферные явления, наблюдавшиеся в срок или в последний час перед сроком; фигурными скобками обозначены явления, наблюдавшиеся между сроками (за 1-3 часа до срока); квадратными скобками обозначены град или гололедные отложения с указанием их диаметра в мм.
Облачность - указаны через наклонную черту общая и нижняя облачность в баллах и высота нижней границы облаков в метрах; квадратными скобками обозначены формы облаков: Ci - перистые, Cs - перисто-слоистые, Cc - перисто-кучевые, Ac - высококучевые, As - высокослоистые, Sc - слоисто-кучевые, Ns - слоисто-дождевые, Cu - кучевые, Cb - кучево-дождевые. Подробнее классификацию облаков см. в Атласе облаков (PDF).
T - Температура воздуха - температура, измеренная на высоте 2 м над землей.
Td - Температура точки росы - температура, при понижении до которой содержащийся в воздухе водяной пар достигнет насыщения.
f - Относительная влажность воздуха - влажноcть воздуха, измеренная на высоте 2 м над землей.
Te - Эффективная температура - температура, которую ощущает одетый по сезону человек в тени. Характеристика душности погоды. При расчете учитывается влияние влажности воздуха и скорости ветра на теплоощущения человека.
Tes - Эффективная температура на солнце - температура, которую ощущает человек, с поправкой на солнечный нагрев. Характеристика знойности погоды. Зависит от высоты солнца над горизонтом, облачности и скорости ветра. Ночью, в пасмурную погоду, а также при ветре 12 м/с и более поправка равна нулю.
P - Атмосферное давление - приведенное к уровню моря атмосферное давление.
Po - Атмосферное давление - измеренное на уровне метеостанции атмосферное давление.
Tmin - Минимальная температура - минимум температуры воздуха на высоте 2 м над землей.
Tmax - Максимальная температура - максимум температуры воздуха на высоте 2 м над землей.
R - Количество осадков - Количество выпавших осадков за период времени, мм. При наведении курсора мыши на число - период времени, за который выпало указанное количество осадков.
R24 - Количество осадков - Количество выпавших осадков за 24 часа, мм.
S - Снежный покров - Высота снежного покрова, см. При наведении курсора мыши на число - состояние снежного покрова и степень покрытия местности в баллах.